Hourly Data Report for May 26, 2021

TOBERMORY RCS
ONTARIO
Current Station Operator: ECCC - MSC

45°14'00.000" N
81°38'00.000" W
213.50 m
6128330
71767
TTR

Download Data

Hourly Data (May 2021)
Hourly Data Report for May 26, 2021
TIME
LST
Temp Definition
°C
Dew Point Definition
°C
Rel Hum Definition
%
Precip. Amount Definition
mm

Wind Dir Definition
10's deg

Wind Spd Definition
km/h
Visibility Definition
km
Stn Press Definition
kPa
Hmdx Definition


Wind Chill Definition


Weather Definition


00:00 16.1 12.0 77 0.0 22 14   98.40     LegendNANA
01:00 16.0 11.1 73 0.0 21 17   98.36     LegendNANA
02:00 15.0 11.8 81 0.0 22 14   98.30     LegendNANA
03:00 13.0 11.7 92 4.9 22 10   98.34     LegendNANA
04:00 12.6 11.7 94 0.3 23 12   98.38     LegendNANA
05:00 14.0 13.3 96 3.3 21 9   98.29     LegendNANA
06:00 14.3 13.3 93 0.2 24 17   98.33     LegendNANA
07:00 12.9 12.2 96 0.0 21 17   98.30     LegendNANA
08:00 12.8 11.7 93 0.0 23 17   98.35     LegendNANA
09:00 13.7 11.7 88 0.0 24 18   98.36     LegendNANA
10:00 15.3 12.4 83 0.0 24 22   98.37     LegendNANA
11:00 14.0 12.3 89 0.0 24 20   98.41     LegendNANA
12:00 14.5 12.3 86 0.0 25 18   98.46     LegendNANA
13:00 15.4 11.7 78 0.0 27 16   98.49     LegendNANA
14:00 14.8 10.0 73 0.0 29 20   98.53     LegendNANA
15:00 14.6 8.9 68 0.0 29 24   98.62     LegendNANA
16:00 14.5 7.4 63 0.0 29 23   98.71     LegendNANA
17:00 12.9 5.0 59 0.0 31 29   98.73     LegendNANA
18:00 10.6 4.4 66 0.0 30 23   98.85     LegendNANA
19:00 9.1 3.8 69 0.0 29 26   98.92     LegendNANA
20:00 7.9 2.7 70 0.0 30 26   98.99     LegendNANA
21:00 7.0 3.5 79 0.0 29 19   99.08     LegendNANA
22:00 6.8 3.3 78 0.0 30 20   99.16     LegendNANA
23:00 6.8 3.2 78 0.0 31 20   99.26     LegendNANA

Notes on Data Quality.

Legend

  • E = Estimated
  • M = Missing
  • NA = Not Available*
  • [empty] = Indicates an unobserved value
Date modified: